When you browse on this site, cookies collect data to enhance your experience and personalize the content and advertising you see.
Visit our Privacy Policy to learn more. By continuing to use the site, you agree to this use of cookies and data.
  • Em Portugal
  • Lista de países
  • Para 7 dias
  • Temperatura da água
  • Mapa do tempo
  • Widgets de tempo
  • user-avatar
    Iniciar Sessão

    Previsão horária em Pabna

    Hoje, 28 Maio, Quinta-feira

    Tempo Temperatura Precipitação Vento Pressão Humidade
    00:00 +30°C° 0.8 mm 7 m/s 751 mmHg 81%
    01:00 +30°C° 0 mm 7 m/s 751 mmHg 80%
    02:00 +30°C° 0 mm 6 m/s 750 mmHg 80%
    03:00 +30°C° 0 mm 5 m/s 749 mmHg 79%
    04:00 +30°C° 0 mm 4 m/s 750 mmHg 80%
    05:00 +30°C° 0 mm 3 m/s 750 mmHg 81%
    06:00 +30°C° 0 mm 2 m/s 750 mmHg 82%
    07:00 +31°C° 0 mm 3 m/s 750 mmHg 77%
    08:00 +33°C° 0 mm 3 m/s 751 mmHg 72%
    09:00 +34°C° 0 mm 4 m/s 752 mmHg 67%
    10:00 +35°C° 0.9 mm 4 m/s 751 mmHg 65%
    11:00 +35°C° 0.9 mm 3 m/s 751 mmHg 63%
    12:00 +36°C° 0.9 mm 3 m/s 751 mmHg 60%
    13:00 +36°C° 1.3 mm 3 m/s 750 mmHg 59%
    14:00 +37°C° 1.3 mm 3 m/s 749 mmHg 57%
    15:00 +37°C° 1.3 mm 4 m/s 748 mmHg 56%
    16:00 +35°C° 5.8 mm 4 m/s 748 mmHg 65%
    17:00 +32°C° 5.8 mm 5 m/s 748 mmHg 74%
    18:00 +28°C° 5.8 mm 5 m/s 748 mmHg 83%
    19:00 +28°C° 1 mm 5 m/s 749 mmHg 82%
    20:00 +28°C° 1 mm 4 m/s 750 mmHg 82%
    21:00 +27°C° 1 mm 3 m/s 751 mmHg 81%
    22:00 +27°C° 0.3 mm 4 m/s 751 mmHg 84%
    23:00 +27°C° 0.3 mm 6 m/s 752 mmHg 86%

    Amanhã, 29 Maio, Sexta-feira

    Tempo Temperatura Precipitação Vento Pressão Humidade
    00:00 +27°C° 0.3 mm 7 m/s 752 mmHg 89%
    01:00 +27°C° 0.5 mm 6 m/s 752 mmHg 88%
    02:00 +27°C° 0.5 mm 5 m/s 752 mmHg 88%
    03:00 +27°C° 0.5 mm 4 m/s 751 mmHg 88%
    04:00 +26°C° 1 mm 5 m/s 752 mmHg 89%
    05:00 +26°C° 1 mm 5 m/s 752 mmHg 90%
    06:00 +26°C° 1 mm 6 m/s 752 mmHg 91%
    07:00 +24°C° 3.6 mm 6 m/s 753 mmHg 92%
    08:00 +24°C° 3.6 mm 6 m/s 753 mmHg 92%
    09:00 +24°C° 3.6 mm 7 m/s 754 mmHg 92%
    10:00 +27°C° 2 mm 6 m/s 753 mmHg 87%
    11:00 +28°C° 2 mm 6 m/s 753 mmHg 83%
    12:00 +29°C° 2 mm 6 m/s 753 mmHg 78%
    13:00 +30°C° 1.2 mm 5 m/s 752 mmHg 72%
    14:00 +32°C° 1.2 mm 5 m/s 751 mmHg 66%
    15:00 +34°C° 1.2 mm 4 m/s 750 mmHg 60%
    16:00 +33°C° 0.9 mm 4 m/s 750 mmHg 64%
    17:00 +32°C° 0.9 mm 4 m/s 750 mmHg 68%
    18:00 +30°C° 0.9 mm 4 m/s 749 mmHg 72%
    19:00 +29°C° 0.9 mm 4 m/s 750 mmHg 77%
    20:00 +28°C° 0.9 mm 4 m/s 751 mmHg 81%
    21:00 +27°C° 0.9 mm 3 m/s 752 mmHg 85%
    22:00 +27°C° 0.2 mm 3 m/s 751 mmHg 86%
    23:00 +27°C° 0.2 mm 3 m/s 751 mmHg 87%

    Depois de amanhã, 30 Maio, Sábado

    Tempo Temperatura Precipitação Vento Pressão Humidade
    00:00 +27°C° 0.2 mm 3 m/s 751 mmHg 88%
    01:00 +27°C° 0 mm 2 m/s 751 mmHg 87%
    02:00 +27°C° 0 mm 1 m/s 752 mmHg 87%
    03:00 +24°C° 0 mm 0 m/s 752 mmHg 87%
    04:00 +26°C° 0 mm 1 m/s 752 mmHg 86%
    05:00 +27°C° 0 mm 1 m/s 752 mmHg 85%
    06:00 +27°C° 0 mm 1 m/s 753 mmHg 84%
    07:00 +28°C° 0 mm 1 m/s 753 mmHg 76%
    08:00 +30°C° 0 mm 1 m/s 753 mmHg 69%
    09:00 +32°C° 0 mm 1 m/s 754 mmHg 61%
    10:00 +34°C° 0 mm 2 m/s 754 mmHg 59%
    11:00 +35°C° 0 mm 2 m/s 753 mmHg 56%
    12:00 +36°C° 0 mm 2 m/s 753 mmHg 54%
    13:00 +36°C° 0 mm 3 m/s 752 mmHg 55%
    14:00 +36°C° 0 mm 3 m/s 752 mmHg 55%
    15:00 +37°C° 0 mm 3 m/s 751 mmHg 56%
    16:00 +36°C° 0 mm 2 m/s 751 mmHg 59%
    17:00 +36°C° 0 mm 2 m/s 750 mmHg 63%
    18:00 +34°C° 0 mm 1 m/s 750 mmHg 66%
    19:00 +35°C° 0.3 mm 2 m/s 750 mmHg 69%
    20:00 +34°C° 0.3 mm 2 m/s 751 mmHg 71%
    21:00 +33°C° 0.3 mm 3 m/s 752 mmHg 74%
    22:00 +33°C° 0.1 mm 3 m/s 752 mmHg 77%
    23:00 +31°C° 0.1 mm 3 m/s 752 mmHg 79%

    31 Maio, Domingo

    Tempo Temperatura Precipitação Vento Pressão Humidade
    00:00 +31°C° 0.1 mm 3 m/s 752 mmHg 82%
    01:00 +30°C° 0 mm 3 m/s 752 mmHg 84%
    02:00 +30°C° 0 mm 3 m/s 752 mmHg 85%
    03:00 +30°C° 0 mm 3 m/s 752 mmHg 87%
    04:00 +30°C° 2 mm 3 m/s 752 mmHg 88%
    05:00 +30°C° 2 mm 3 m/s 753 mmHg 89%
    06:00 +30°C° 2 mm 3 m/s 753 mmHg 90%
    07:00 +32°C° 1.8 mm 4 m/s 753 mmHg 84%
    08:00 +33°C° 1.8 mm 4 m/s 754 mmHg 78%
    09:00 +35°C° 1.8 mm 5 m/s 754 mmHg 72%
    10:00 +36°C° 0 mm 5 m/s 754 mmHg 65%
    11:00 +37°C° 0 mm 4 m/s 753 mmHg 58%
    12:00 +40°C° 0 mm 4 m/s 753 mmHg 52%
    13:00 +40°C° 0.1 mm 4 m/s 752 mmHg 50%
    14:00 +40°C° 0.1 mm 4 m/s 751 mmHg 49%
    15:00 +41°C° 0.1 mm 4 m/s 750 mmHg 47%
    16:00 +40°C° 0.5 mm 4 m/s 750 mmHg 52%
    17:00 +38°C° 0.5 mm 4 m/s 750 mmHg 57%
    18:00 +37°C° 0.5 mm 3 m/s 749 mmHg 62%
    19:00 +36°C° 0.9 mm 4 m/s 750 mmHg 67%
    20:00 +34°C° 0.9 mm 5 m/s 750 mmHg 73%
    21:00 +33°C° 0.9 mm 7 m/s 751 mmHg 78%
    22:00 +33°C° 0 mm 6 m/s 751 mmHg 80%
    23:00 +32°C° 0 mm 5 m/s 751 mmHg 83%

    1 Junho, Segunda-feira

    Tempo Temperatura Precipitação Vento Pressão Humidade
    00:00 +30°C° 0 mm 4 m/s 751 mmHg 86%
    01:00 +30°C° 0 mm 4 m/s 751 mmHg 86%
    02:00 +30°C° 0 mm 4 m/s 751 mmHg 87%
    03:00 +30°C° 0 mm 4 m/s 751 mmHg 87%
    04:00 +30°C° 0 mm 3 m/s 751 mmHg 87%
    05:00 +30°C° 0 mm 3 m/s 751 mmHg 87%
    06:00 +30°C° 0 mm 3 m/s 752 mmHg 87%
    07:00 +32°C° 0 mm 4 m/s 752 mmHg 82%
    08:00 +34°C° 0 mm 5 m/s 752 mmHg 76%
    09:00 +35°C° 0 mm 5 m/s 752 mmHg 71%
    10:00 +37°C° 0 mm 5 m/s 752 mmHg 63%
    11:00 +38°C° 0 mm 4 m/s 752 mmHg 56%
    12:00 +41°C° 0 mm 4 m/s 751 mmHg 49%
    13:00 +42°C° 0 mm 4 m/s 751 mmHg 45%
    14:00 +42°C° 0 mm 3 m/s 750 mmHg 42%
    15:00 +43°C° 0 mm 3 m/s 749 mmHg 38%
    16:00 +42°C° 0 mm 3 m/s 749 mmHg 44%
    17:00 +41°C° 0 mm 4 m/s 748 mmHg 49%
    18:00 +40°C° 0 mm 4 m/s 748 mmHg 55%
    19:00 +37°C° 0.2 mm 4 m/s 748 mmHg 61%
    20:00 +36°C° 0.2 mm 5 m/s 749 mmHg 67%
    21:00 +34°C° 0.2 mm 6 m/s 749 mmHg 73%
    22:00 +33°C° 0 mm 5 m/s 750 mmHg 75%
    23:00 +33°C° 0 mm 5 m/s 750 mmHg 78%

    2 Junho, Terça-feira

    Tempo Temperatura Precipitação Vento Pressão Humidade
    00:00 +32°C° 0 mm 4 m/s 750 mmHg 80%
    01:00 +32°C° 0 mm 4 m/s 750 mmHg 81%
    02:00 +32°C° 0 mm 4 m/s 749 mmHg 82%
    03:00 +30°C° 0 mm 4 m/s 749 mmHg 83%
    04:00 +30°C° 0 mm 4 m/s 749 mmHg 83%
    05:00 +30°C° 0 mm 5 m/s 750 mmHg 83%
    06:00 +30°C° 0 mm 5 m/s 750 mmHg 84%
    07:00 +33°C° 0 mm 5 m/s 750 mmHg 79%
    08:00 +34°C° 0 mm 5 m/s 750 mmHg 74%
    09:00 +35°C° 0 mm 6 m/s 750 mmHg 69%
    10:00 +37°C° 0 mm 5 m/s 750 mmHg 60%
    11:00 +40°C° 0 mm 4 m/s 750 mmHg 51%
    12:00 +42°C° 0 mm 4 m/s 750 mmHg 42%
    13:00 +43°C° 0 mm 4 m/s 749 mmHg 39%
    14:00 +44°C° 0 mm 4 m/s 748 mmHg 36%
    15:00 +45°C° 0 mm 3 m/s 747 mmHg 32%
    16:00 +42°C° 0.3 mm 4 m/s 747 mmHg 40%
    17:00 +38°C° 0.3 mm 4 m/s 746 mmHg 47%
    18:00 +35°C° 0.3 mm 4 m/s 746 mmHg 54%
    19:00 +35°C° 0.1 mm 4 m/s 747 mmHg 58%
    20:00 +34°C° 0.1 mm 5 m/s 747 mmHg 62%
    21:00 +34°C° 0.1 mm 6 m/s 748 mmHg 66%
    22:00 +33°C° 0 mm 6 m/s 748 mmHg 70%
    23:00 +33°C° 0 mm 6 m/s 748 mmHg 73%
    Mostrar mais